AirNav   Everest Fuels
 
 599 users online  

KPCW Erie-Ottawa International Airport
Port Clinton, Ohio, USA

GOING TO PORT CLINTON?


FAA INFORMATION EFFECTIVE 08 OCTOBER 2020

Location

FAA Identifier: PCW
Lat/Long: 41-30-58.6000N 082-52-10.2000W
41-30.976667N 082-52.170000W
41.5162778,-82.8695000
(estimated)
Elevation: 590.1 ft. / 179.9 m (surveyed)
Variation: 07W (2010)
From city: 3 miles E of PORT CLINTON, OH
Time zone: UTC -4 (UTC -5 during Standard Time)
Zip code: 43452

Airport Operations

Airport use: Open to the public
Activation date: 07/1971
Control tower: no
ARTCC: CLEVELAND CENTER
FSS: CLEVELAND FLIGHT SERVICE STATION
NOTAMs facility: CLE (NOTAM-D service available)
Attendance: 0700-1800
Wind indicator: lighted
Segmented circle: no
Lights: ACTVT REIL RWY 09 & 27; PAPI RWY 09 & 27; HIRL RWY 09/27; MIRL RWY 18/36 - CTAF.
Beacon: white-green (lighted land airport)
Operates sunset to sunrise.
International operations: customs landing rights airport

Airport Communications

CTAF/UNICOM: 122.8
WX AWOS-3: 118.775 (419-734-9955)
CLEVELAND APPROACH: 126.35
CLEVELAND DEPARTURE: 126.35
WX AWOS-3 at S24 (15 nm SW): 119.575 (419-547-6932)

Nearby radio navigation aids

VOR radial/distance  VOR name  Freq  Var
DJBr292/33.2DRYER VOR/DME113.6005W

 
NDB name  Hdg/Dist  Freq  Var  ID
PORT CLINTONat field42307WPCW .--. -.-. .--
TIFFIN037/29.726905WTII - .. ..
GROSSE ILE167/37.341907WRYS .-. -.-- ...

Airport Services

Fuel available: 100LL JET-A JET-A+
Parking: hangars and tiedowns
Airframe service: MINOR
Powerplant service: MINOR
Bottled oxygen: NONE
Bulk oxygen: NONE

Runway Information

Runway 9/27

Dimensions: 5646 x 100 ft. / 1721 x 30 m
Surface: asphalt/grooved, in good condition
Weight bearing capacity: 
Single wheel: AUW-100
Runway edge lights: high intensity
Runway edge markings: RWY 09/27: MARKINGS FADED.
RUNWAY 9  RUNWAY 27
Latitude: 41-30.961708N41-31.081315N
Longitude: 082-52.900140W082-51.673483W
Elevation: 588.7 ft.588.2 ft.
Traffic pattern: leftleft
Runway heading: 090 magnetic, 083 true270 magnetic, 263 true
Displaced threshold: no201 ft.
Declared distances: TORA:5646 TODA:5646 ASDA:5161 LDA:5161TORA:5646 TODA:5646 ASDA:5646 LDA:5445
Markings: nonprecision, in poor conditionnonprecision, in poor condition
Visual slope indicator: 4-light PAPI on left (3.00 degrees glide path)4-light PAPI on left (3.00 degrees glide path)
Runway end identifier lights: yesyes
Touchdown point: yes, no lightsyes, no lights
Obstructions: 70 ft. tree, 1800 ft. from runway, 230 ft. right of centerline, 22:1 slope to clear50 ft. tree, 1350 ft. from runway, 23:1 slope to clear

Runway 18/36

Dimensions: 4002 x 75 ft. / 1220 x 23 m
Surface: asphalt, in excellent condition
Runway edge lights: medium intensity
RUNWAY 18  RUNWAY 36
Latitude: 41-31.241588N41-30.583033N
Longitude: 082-52.019652W082-51.986897W
Elevation: 586.1 ft.589.0 ft.
Traffic pattern: leftleft
Runway heading: 185 magnetic, 178 true005 magnetic, 358 true
Markings: basic, in good conditionbasic, in good condition
Runway end identifier lights: nono
Touchdown point: yes, no lightsyes, no lights
Obstructions: 45 ft. trees, 1075 ft. from runway, 19:1 slope to clear70 ft. trees, 1450 ft. from runway, 250 ft. both sides of centerline, 17:1 slope to clear

Airport Ownership and Management from official FAA records

Ownership: Publicly-owned
Owner: ERIE OTTAWA ARPT AUTH
3255 E STATE ROAD
PORT CLINTON, OH 43452
Phone 419-734-6297
Manager: STAN GEBHARDT
3255 EAST STATE RD
PORT CLINTON, OH 43452
Phone 419-734-6297

Airport Operational Statistics

Aircraft based on the field: 69
Single engine airplanes: 56
Multi engine airplanes: 8
Jet airplanes: 4
Helicopters: 1
    
Aircraft operations: avg 148/day *
46% local general aviation
28% transient general aviation
26% air taxi
<1% military
* for 12-month period ending 15 September 2017

Additional Remarks

RWY 09/27 IS PREFERRED WHEN WINDS ARE LIGHT AND VRBL.
TAXILANE A CLSD TO ACFT WITH WINGSPAN MORE THAN 49 FT.
BIRDS & OTR WILDLIFE ON & INVOF APRT
FOR CD CTC CLEVELAND APCH AT 216-352-2323
CUST AVBL 24 HRS 7 DAYS PER WEEK. REQ MUST BE MADE PRIOR TO ARR. LCL OFC 419-732-4446.

Instrument Procedures

NOTE: All procedures below are presented as PDF files. If you need a reader for these files, you should download the free Adobe Reader.

NOT FOR NAVIGATION. Please procure official charts for flight.
FAA instrument procedures published for use from 08 October 2020 at 0901Z to 05 November 2020 at 0900Z.

 
IAPs - Instrument Approach Procedures
RNAV (GPS) RWY 09   download (215KB)
RNAV (GPS) RWY 27   download (239KB)
NDB RWY 27   download (247KB)
NOTE: Special Alternate Minimums apply   download (37KB)
NOTE: Special Take-Off Minimums/Departure Procedures apply   download (237KB)

Other nearby airports with instrument procedures:

S24 - Sandusky County Regional Airport (15 nm SW)
14G - Fremont Airport (17 nm SW)
5A1 - Norwalk-Huron County Airport (22 nm SE)
KTDZ - Toledo Executive Airport (28 nm W)
8G1 - Willard Airport (29 nm S)
 
Loc | Ops | Rwys | IFR | FBO | Links
Com | Nav | Svcs | Stats | Notes
Area around KPCW (Erie-Ottawa International Airport)
 
Road maps at: MapQuest Bing Google
 
Aerial photo
WARNING: Photo may not be current or correct
Aerial photo of KPCW (Erie-Ottawa International Airport)
Photo by Tal Reichert
Photo taken 29-Jul-2012
looking northeast.

Do you have a better or more recent aerial photo of Erie-Ottawa International Airport that you would like to share? If so, please send us your photo.

 
Sectional chart

 
Airport distance calculator
Flying to Erie-Ottawa International Airport? Find the distance to fly.

From to KPCW

Sunrise and sunset
Times for 29-Oct-2020
 Local
(UTC-4)
 Zulu
(UTC)
Morning civil twilight07:3311:33
Sunrise08:0212:02
Sunset18:2922:29
Evening civil twilight18:5722:57

Current date and time
Zulu (UTC)  29-Oct-2020 04:52:41
Local (UTC-4)  29-Oct-2020 00:52:41
 
METAR
KPCW 290435Z AUTO 00000KT 10SM CLR 07/05 A2992 RMK AO2
TAF
KTOL 
42nm W 
281729Z 2818/2918 24011KT P6SM FEW250 FM290000 22005KT P6SM FEW250 FM291200 04005KT P6SM VCSH OVC060
KMFD 
45nm S 
281729Z 2818/2918 24008KT P6SM BKN010 FM282100 25006KT P6SM BKN250 FM290800 VRB02KT P6SM VCSH OVC050 FM291000 VRB03KT 6SM -RA OVC025 FM291200 08004KT 5SM -RA OVC010 FM291600 05006KT 3SM -RA OVC008
CYQG 
46nm N 
281740Z 2818/2918 25012KT P6SM FEW030 BECMG 2822/2824 25008KT BECMG 2905/2907 VRB03KT FM290900 35005KT P6SM OVC200 RMK FCST BASED ON AUTO OBS. NXT FCST BY 290000Z
KCLE 
46nm E 
290312Z 2903/3006 17005KT P6SM OVC200 FM290900 17005KT P6SM OVC035 TEMPO 2909/2912 4SM -RA BR FM291200 12004KT 4SM RA BR OVC025 FM291800 04007KT 4SM RA BR OVC010 FM300200 04010G20KT P6SM OVC015
KFDY 
47nm SW 
281729Z 2818/2918 24009KT P6SM SCT250 FM290900 00000KT 6SM -RA OVC080 FM291400 04004KT 6SM -RA OVC035 FM291500 03005KT 6SM -RA OVC020 FM291700 03007KT 5SM -RA OVC010
KDTW 
48nm NW 
290240Z 2903/3006 21007KT P6SM OVC250 FM291300 01008KT P6SM BKN070 OVC120 FM291900 02011G20KT P6SM OVC025
NOTAMs
Click for the latest NOTAMs
NOTAMs are issued by the DoD/FAA and will open in a separate window not controlled by AirNav.

 

 
 

FBO, Fuel Providers, and Aircraft Ground Support

  
 Business Name 
 
 Contact 
 
 Services / Description 
 
Fuel Prices
 
Comments
  
 Erie Ottawa International Airport Authority
419-734-6297
[web site]
[email]
Aviation fuel, Aircraft parking (ramp or tiedown), Hangars, GPU / Power cart, Passenger terminal and lounge, Aviation museum, Rental cars, ...
 
U.S. Government AIR Card   U.S. Customs Service   WingPoints™ Rewards   Crew cars  
 
More info about Erie Ottawa International Airport Authority
Phillips 66
100LL Jet A
FS $4.80 $3.95 
SS $4.55 --- 
 Updated 21-Oct-2020
 
   7 read write
FS=Full service
SS=Self service
Update Fuel Prices
 

Would you like to see your business listed on this page?

 If your business provides an interesting product or service to pilots, flight crews, aircraft, or users of the Erie-Ottawa International Airport, you should consider listing it here.  To start the listing process, click on the button below
 
Add a business
 

Other Pages about Erie-Ottawa International Airport

www.portclintonairport.com
 
Update a link
 
Copyright © AirNav, LLC. All rights reserved. Privacy Policy  Contact